Flag for Tunisia Weather past 2 weeks in Houmt Souk (Djerba), Tunisia

Now
73 °F

Clear.


Feels Like: 74 °F
Forecast: 74 / 85 °F
Wind: 5 mph from Southeast

Location: Djerba Mellita

Current Time: Jul 4, 2015 at 3:43:21 AM

Latest Report: Jul 4, 2015 at 3:00 AM


Visibility: 10 mi

Pressure: 30.12 "Hg

Humidity: 78%

Dew point: 66 °F

Location of Houmt Souk (Djerba)Location

Historic Weather in Houmt Souk (Djerba) — Graph

°F

Houmt Souk (Djerba) temperature yesterday

Maximum temperature yesterday: 84 °F (at 11:00 AM)
Minimum temperature yesterday: 72 °F (at 2:30 AM)
Average temperature yesterday: 78 °F

Past Weeks' High & Low Weather Summary

 TemperatureHumidityPressure
High97 °F (Jun 23, 2:30 PM)89% (Jun 30, 2:00 AM)30.15 "Hg (Jun 30, 2:00 AM)
Low68 °F (Jun 19, 3:30 AM)13% (Jun 23, 1:30 PM)29.77 "Hg (Jun 24, 5:30 PM)
Average79 °F60%30.01 "Hg
* Reported Jun 19 2:00 AM — Jul 4 2:30 AM, Houmt Souk (Djerba), Weather by CustomWeather, © 2015

Note: Actual official high and low records may vary slightly from our data, if they occured in-between our weather recording intervals... More about our weather records

Advertising

Houmt Souk (Djerba) weather history for previous 24 hours

 ConditionsComfort  
Time TempWeatherWind HumidityBarometerVisibility
2:30 AM
Sat, Jul 4
73 °FClear.3 mph78%30.12 "Hg10 mi
2:00 AM73 °FClear.6 mph78%30.12 "Hg10 mi
1:30 AM73 °FClear.5 mph78%30.15 "Hg10 mi
1:00 AM73 °FClear.5 mph78%30.15 "Hg10 mi
12:00 AM73 °FClear.3 mph78%30.15 "Hg10 mi
11:30 PM
Fri, Jul 3
75 °FClear.5 mph74%30.15 "Hg10 mi
11:00 PM75 °FClear.5 mph78%30.15 "Hg10 mi
10:30 PM75 °FClear.6 mph78%30.15 "Hg10 mi
10:00 PM77 °FClear.7 mph74%30.15 "Hg10 mi
9:30 PM77 °FClear.7 mph74%30.15 "Hg10 mi
9:00 PM77 °FClear.7 mph74%30.15 "Hg10 mi
8:30 PM77 °FClear.8 mph69%30.12 "Hg10 mi
8:00 PM77 °FClear.10 mph69%30.12 "Hg10 mi
7:30 PM79 °FSunny.12 mph65%30.12 "Hg10 mi
7:00 PM79 °FSunny.12 mph70%30.12 "Hg10 mi
6:30 PM81 °FSunny.13 mph62%30.12 "Hg10 mi
6:00 PM81 °FSunny.13 mph62%30.12 "Hg10 mi
5:30 PM81 °FPassing clouds.13 mph62%30.12 "HgN/A
5:00 PM82 °FSunny.14 mph58%30.12 "Hg10 mi
4:30 PM82 °FPassing clouds.13 mph58%30.12 "HgN/A
4:00 PM84 °FPassing clouds.15 mph55%30.12 "HgN/A
3:30 PM84 °FSunny.15 mph55%30.12 "Hg10 mi
3:00 PM84 °FPassing clouds.14 mph55%30.12 "HgN/A
2:30 PM84 °FSunny.14 mph55%30.12 "Hg10 mi
2:00 PM84 °FPassing clouds.14 mph55%30.15 "HgN/A
1:30 PM84 °FSunny.15 mph55%30.15 "Hg10 mi
1:00 PM84 °FPassing clouds.15 mph55%30.15 "HgN/A
12:30 PM84 °FSunny.15 mph58%30.15 "Hg10 mi
11:00 AM84 °FPassing clouds.12 mph55%30.15 "HgN/A
10:30 AM82 °FSunny.14 mph62%30.15 "Hg10 mi
10:00 AM82 °FPassing clouds.13 mph62%30.15 "HgN/A
9:30 AM82 °FPassing clouds.12 mph62%30.15 "HgN/A
9:00 AM81 °FSunny.10 mph66%30.15 "Hg10 mi
8:30 AM81 °FSunny.10 mph66%30.15 "Hg10 mi
8:00 AM81 °FSunny.12 mph66%30.15 "Hg10 mi
7:30 AM79 °FSunny.12 mph70%30.15 "Hg10 mi
7:00 AM79 °FSunny.9 mph70%30.15 "Hg10 mi
6:30 AM77 °FSunny.3 mph74%30.12 "Hg10 mi
6:00 AM73 °FSunny.5 mph78%30.12 "Hg10 mi
5:30 AM72 °FSunny.6 mph83%30.12 "Hg10 mi
5:00 AM72 °FClear.6 mph83%30.12 "Hg10 mi
4:30 AM72 °FClear.6 mph83%30.12 "Hg10 mi
4:00 AM72 °FClear.3 mph83%30.12 "Hg10 mi
3:30 AM72 °FClear.3 mph88%30.12 "Hg10 mi
3:00 AM72 °FClear.3 mph88%30.12 "Hg10 mi
Weather by CustomWeather, © 2015

See weather overviewHow to use our weather pages